Location: Grange Rosano
(44.4500°N, 6.9667°E)
Time: 21:19:05
(UTC+00:00)

SL-08 R/B - Pass Details

Date: 26 May 2022
Orbit: 674 x 737 km, 98.5° (Epoch: 01 July)

Event Time Altitude Azimuth Distance (km) Brightness Sun altitude
Rises 03:07:49 0° 152° (SSE) 3,012 6.5 -7.6°
Reaches altitude 10° 03:10:04 10° 147° (SSE) 2,104 5.7 -7.3°
Maximum altitude 03:14:31 53° 71° (ENE) 835 4.2 -6.7°
Drops below altitude 10° 03:19:04 10° 355° (N) 2,140 6.3 -6.1°
Sets 03:21:22 0° 351° (N) 3,069 7.0 -5.7°
